Weather History for KMGY - November, 2012

Change the Weather History Date:

Saturday, November 24, 2012

  Actual Average (KDAY) Record (KDAY)
Temperature  
Mean Temperature 30 °F 39 °F  
Max Temperature 32 °F 47 °F 68 °F (1931)
Min Temperature 25 °F 32 °F 3 °F (1950)
Degree Days  
Heating Degree Days 35 26  
Month to date heating degree days 499  
Since 1 July heating degree days 946  
Cooling Degree Days 0 0  
Month to date cooling degree days 0  
Year to date cooling degree days 891  
Moisture  
Dew Point 20 °F    
Average Humidity 68    
Maximum Humidity 75    
Minimum Humidity 64    
Precipitation  
Precipitation 0.00 in 0.12 in 1.23 in (1900)
Month to date precipitation 2.71  
Year to date precipitation 37.25  
Snow  
Snow 0.00 in 0.10 in 0.70 in (1971)
Month to date snowfall 0.4  
Since 1 July snowfall 0.8  
Since 1 September snowfall 0.8  
Snow Depth -    
Sea Level Pressure  
Sea Level Pressure 30.18 in    
Wind  
Wind Speed 7 mph (West)    
Max Wind Speed 13 mph    
Max Gust Speed -    
Visibility 10 miles    
Events      
T = Trace of Precipitation, MM = Missing Value Source: NWS Daily Summary

Daily Weather History Graph

Daily Weather History Graph

Search for Another Location

Airport or City:

Trip Planner

Search our weather history database for the weather conditions in past years. The results will help you decide how hot, cold, wet, or windy it might be!

Date:

Astronomy

Nov. 24, 2012 Rise Set
Actual Time 7:31 AM EST 5:15 PM EST
Civil Twilight 7:02 AM EST 5:45 PM EST
Nautical Twilight 6:29 AM EST 6:18 PM EST
Astronomical Twilight 5:56 AM EST 6:50 PM EST
Moon 2:59 PM EST (11/24) 3:48 AM EST (11/24)
Length of Visible Light 10h 42m
Length of Day
9h 43m
Waxing Gibbous, 87% of the Moon is Illuminated
Nov 24
Waxing Gibbous
Nov 28
Full
Dec 6
Last Quarter
Dec 13
New
Dec 20
First Quarter

Hourly Weather History & Observations

Time (EST) Temp. Windchill Dew Point Humidity Pressure Visibility Wind Dir Wind Speed Gust Speed Precip Events Conditions
12:53 AM 30.0 °F 23.2 °F 19.9 °F 66% 30.17 in 10.0 mi West 6.9 mph - N/A   Overcast
1:53 AM 30.0 °F 25.2 °F 19.9 °F 66% 30.17 in 10.0 mi West 4.6 mph - N/A   Overcast
2:53 AM 30.0 °F 23.2 °F 19.9 °F 66% 30.17 in 10.0 mi West 6.9 mph - N/A   Overcast
3:53 AM 28.9 °F 20.4 °F 19.9 °F 69% 30.17 in 10.0 mi West 9.2 mph - N/A   Overcast
4:53 AM 28.9 °F 21.1 °F 19.9 °F 69% 30.17 in 10.0 mi West 8.1 mph - N/A   Overcast
5:53 AM 28.0 °F 20.8 °F 19.9 °F 72% 30.18 in 10.0 mi West 6.9 mph - N/A   Overcast
6:53 AM 28.0 °F 19.3 °F 19.9 °F 72% 30.19 in 10.0 mi West 9.2 mph - N/A   Overcast
7:53 AM 28.0 °F 20.8 °F 19.9 °F 72% 30.20 in 10.0 mi West 6.9 mph - N/A   Overcast
8:53 AM 28.0 °F 20.0 °F 19.9 °F 72% 30.21 in 10.0 mi West 8.1 mph - N/A   Overcast
9:53 AM 28.9 °F 20.4 °F 21.0 °F 72% 30.22 in 10.0 mi West 9.2 mph - N/A   Overcast
10:53 AM 30.0 °F 21.1 °F 21.0 °F 69% 30.23 in 10.0 mi West 10.4 mph - N/A   Overcast
11:34 AM 30.2 °F 22.6 °F 21.2 °F 69% 30.19 in 10.0 mi West 8.1 mph - N/A   Overcast
11:44 AM 30.2 °F 21.9 °F 21.2 °F 69% 30.19 in 10.0 mi West 9.2 mph - N/A   Overcast
11:53 AM 30.0 °F 21.1 °F 21.9 °F 72% 30.22 in 10.0 mi West 10.4 mph - N/A   Overcast
12:53 PM 30.9 °F 23.5 °F 21.9 °F 69% 30.20 in 10.0 mi WNW 8.1 mph - N/A   Overcast
1:53 PM 32.0 °F 24.8 °F 21.9 °F 66% 30.19 in 10.0 mi WNW 8.1 mph - N/A   Overcast
2:42 PM 32.0 °F 23.6 °F 21.2 °F 64% 30.16 in 10.0 mi NW 10.4 mph - N/A   Overcast
2:53 PM 32.0 °F 22.5 °F 21.9 °F 66% 30.19 in 10.0 mi West 12.7 mph - N/A   Overcast
3:53 PM 30.9 °F 23.5 °F 21.0 °F 67% 30.19 in 10.0 mi WNW 8.1 mph - N/A   Overcast
4:53 PM 30.9 °F 25.2 °F 19.9 °F 64% 30.19 in 10.0 mi WNW 5.8 mph - N/A   Overcast
5:53 PM 30.9 °F 24.3 °F 19.9 °F 64% 30.19 in 10.0 mi WNW 6.9 mph - N/A   Overcast
6:53 PM 30.9 °F 26.2 °F 19.9 °F 64% 30.19 in 10.0 mi WNW 4.6 mph - N/A   Overcast
7:53 PM 30.9 °F - 19.9 °F 64% 30.17 in 10.0 mi Calm Calm - N/A   Overcast
8:53 PM 30.0 °F 25.2 °F 19.0 °F 64% 30.17 in 10.0 mi West 4.6 mph - N/A   Overcast
9:53 PM 30.0 °F 25.2 °F 19.0 °F 64% 30.15 in 10.0 mi WSW 4.6 mph - N/A   Overcast
10:53 PM 28.0 °F 24.2 °F 19.0 °F 69% 30.15 in 10.0 mi SW 3.5 mph - N/A   Partly Cloudy
11:53 PM 25.0 °F 19.3 °F 18.0 °F 75% 30.13 in 10.0 mi South 4.6 mph - N/A   Clear